Regional Weather Roundup
Issued by NWS Cleveland, OH

Home | Current Version | Previous Version | Text Only | Print | Product List | Glossary On
Versions: 1 2 3 4 5 6 7 8 9 10 11 12 13 14 15 16 17 18 19 20 21 22 23 24 25 26 27 28 29 30 31 32 33 34 35 36 37 38 39 40 41 42 43 44 45 46 47 48 49 50
000
ASUS41 KCLE 301012
RWRCLE
OHIO REGIONAL WEATHER ROUNDUP
NATIONAL WEATHER SERVICE WILMINGTON, OH
600 AM EDT SAT APR 30 2016

NOTE: "FAIR" INDICATES FEW OR NO CLOUDS BELOW 12,000 FEET WITH NO
SIGNIFICANT WEATHER AND/OR OBSTRUCTIONS TO VISIBILITY.

OHZ001>008-015>018-024>027-034-035-043-044-301100-
   NORTHWEST OHIO

CITY           SKY/WX    TMP DP  RH WIND       PRES   REMARKS
DEFIANCE       FAIR      42  37  82 E6        30.12R
FINDLAY        FAIR      40  34  79 E9        30.10R
TOLEDO EXPRESS FAIR      38  35  89 CALM      30.13R
TOLEDO EXEC    FAIR      41  35  79 SE3       30.14R
LIMA           FAIR      41  38  89 NE12      30.07S
$$

OHZ009>014-019>023-028>033-038-089-301100-
   NORTHEAST OHIO

CITY           SKY/WX    TMP DP  RH WIND       PRES   REMARKS
CLE-HOPKINS    FAIR      40  37  89 E6        30.15S
CLE-LAKEFRONT  FAIR      41  36  82 E5        30.13S
CUY CO. ARPT   NOT AVBL
LORAIN-ELYRIA  FAIR      35  33  92 E3        30.13R FOG
ASHTABULA      FAIR      32  31  96 E3        30.15F
AKRON-CANTON   FAIR      37  35  92 E8        30.12S FOG
WOOSTER        FAIR      34  33  96 CALM      30.13R FOG
MANSFIELD      FAIR      36  35  96 E6        30.11R
YOUNGSTOWN     CLOUDY    38  36  92 NE6       30.12F
$$

OHZ042-051>053-060>062-070>072-077>081-301100-
  SOUTHWEST OHIO

CITY           SKY/WX    TMP DP  RH WIND       PRES   REMARKS
CINC-COVINGTON CLOUDY    53  47  79 E12       30.02F
CINC-LUNKEN    CLOUDY    53  48  83 NE8       30.04F
HAMILTON       CLOUDY    53  45  74 E8        30.06S
DAYTON         CLOUDY    48  41  76 E12       30.06F
WRIGHT-PAT AFB CLOUDY    48  44  84 E8        30.06F
DAYTON GENERAL CLOUDY    50  41  71 SE8       30.05S
WILMINGTON     CLOUDY    49  44  83 E8        30.04F
$$

OHZ036-037-039>041-045>050-054>059-063>069-073>076-082>088-301100-
  CENTRAL AND SOUTHEAST OHIO

CITY           SKY/WX    TMP DP  RH WIND       PRES   REMARKS
COLUMBUS       CLOUDY    44  41  89 E10       30.09R
OSU AIRPORT    MOCLDY    44  41  89 E5        30.09R
BOLTON FIELD   CLOUDY    45  42  90 E5        30.08F
RICKENBACK AFB CLOUDY    45  43  91 E6        30.08S
NEWARK         CLOUDY    46  41  82 E9        30.10R
MARION         FAIR      37  36  96 NE6       30.10S FOG
LANCASTER      CLOUDY    47  43  86 E7        30.09R
ZANESVILLE     CLOUDY    48  43  82 CALM      30.10R
NEW PHILLY     CLOUDY    42  38  85 E6        30.14R
$$



USA.gov is the U.S. government's official web portal to all federal, state and local government web resources and services.